Tracking 22779 objects as of 12-Apr-2021
HD Live streaming from Space Station
objects crossing your sky now

NATO 3C

Track NATO 3C now!
NATO 3C is classified as:


NORAD ID: 11115
Int'l Code: 1978-106A
Perigee: 36,286.2 km
Apogee: 36,320.0 km
Inclination: 12.6 °
Period: 1,462.2 minutes
Semi major axis: 42674 km
RCS: 7.0899 m2 (large)
Launch date: November 19, 1978
Source: North Atlantic Treaty Organization (NATO)
Launch site: AIR FORCE EASTERN TEST RANGE (AFETR)
aabbcc
Your satellite tracking list
Your tracking list is empty




NASA's NSSDC Master Catalog

Two Line Element Set (TLE):
1 11115U 78106A   21101.83014692 -.00000055  00000-0  00000-0 0  9990
2 11115  12.5633 329.2611 0003965   7.4267 259.0262  0.98481903636579
Source of the keplerian elements: AFSPC